Regional Weather Roundup
Issued by NWS Albany, NY

Home | Current Version | Previous Version | Graphics & Text | Print | Product List | Glossary Off
Versions: 1 2 3 4 5 6 7 8 9 10 11 12 13 14 15 16 17 18 19 20 21 22 23 24 25 26 27

000
ASUS41 KALY 300210
RWRALY

NEW YORK STATE HOURLY WEATHER ROUNDUP
NATIONAL WEATHER SERVICE ALBANY NY
1000 PM EDT MON AUG 29 2016

NOTE: "FAIR" INDICATES FEW OR NO CLOUDS BELOW 12,000 FEET WITH NO
SIGNIFICANT WEATHER AND/OR NO OBSTRUCTIONS TO VISIBILITY.

NYZ032-033-038>043-046>054-057>066-NYZ062>081-082-084-300300-
EAST


CITY           SKY/WX    TMP DP  RH WIND       PRES   REMARKS
ALBANY         MOCLDY    69  57  65 N6        30.18R
GLENS FALLS    PTCLDY    67  55  65 N5        30.18R
POUGHKEEPSIE   CLEAR     64  58  80 NE5       30.14R
NEWBURGH       CLEAR     72  61  68 N6        30.17R
MONTGOMERY     CLEAR     66  60  81 CALM      30.16R
WHITE PLAINS   CLEAR     73  56  54 N6        30.14R
ISLIP          CLEAR     76  58  53 N7        30.12R
NEW YORK CITY  PTCLDY    82  57  42 N10       30.12R
CENTRAL PARK   CLEAR     80  57  45 NE8       30.15S
$$

NYZ005>009-017-018-044>046-055-056-300300-
CENTRAL


CITY           SKY/WX    TMP DP  RH WIND       PRES   REMARKS
FULTON         CLEAR     60  58  92 CALM      30.20S
SYRACUSE       PTCLDY    65  59  81 CALM      30.19S
ROME           CLEAR     64  59  83 NW3       30.21R
ELMIRA         CLEAR     66  58  75 SE3       30.22R
BINGHAMTON     CLEAR     64  55  72 N6        30.23S
MONTICELLO     CLEAR     64  55  72 NW6       30.22S
$$

NYZ026>034-041>043-087-300300-
NORTH


CITY           SKY/WX    TMP DP  RH WIND       PRES   REMARKS
WATERTOWN      CLEAR     57  53  86 CALM      30.19S
FORT DRUM      NOT AVBL
MASSENA        CLEAR     59  56  89 CALM      30.20S
SARANAC LAKE   CLEAR     52  50  93 CALM      30.23R
PLATTSBURGH    CLEAR     61  56  83 SW3       30.18S
$$

NYZ001>004-010>016-019>021-085-300300-
WEST


CITY           SKY/WX    TMP DP  RH WIND       PRES   REMARKS
NIAGARA FALLS  PTCLDY    72  56  57 CALM      30.21R
BUFFALO        PTCLDY    71  57  61 NE5       30.21S
DUNKIRK        CLEAR     63  60  90 S3        30.22R
JAMESTOWN      CLEAR     66  55  68 N5        30.26R
WELLSVILLE     CLEAR     66  59  78 N6        30.28R
ROCHESTER      CLEAR     66  57  72 CALM      30.22R
PENN YAN       CLEAR     60  55  83 CALM      30.23S
$$

             KEY
       WCI = WIND CHILL INDEX
       VSB = VISIBILITY
       HX  = HEAT INDEX
$$




USA.gov is the U.S. government's official web portal to all federal, state and local government web resources and services.